Погода в Паче

Россия / Вологодская область     59°10′46″N   38°18′41″E
темп.,
°C
ветер,
м/с
пор.,
м/с
влажн.,
%
обл.,
%
осадки,
мм/ч
давл.,
гПа
погр.,
м
28 июля, ср
ср2800:00+14ююз00955 0.0 101811
03:00+13вюв119510 0.0 101812
06:00+15вюв23934 0.0 101789
09:00+20ююв23666 0.0 1016486
12:00+25ююз334699 0.0 10141335
15:00+26ююз4439100 0.0 10121640
18:00+25ююв244591 0.0 1010393
21:00+19ююз256799 0.0 100990
29 июля, чт
чт2900:00+18юз2385100 0.0 100857
03:00+16юз2596100 1.2 1007139
06:00+16юз2495100 0.2 1006110
09:00+17ююз249163 0.3 1005243
12:00+23ююз4559100 0.3 10031407
15:00+21з4782100 2.2 1003722
18:00+22з387547 2.3 1001642
21:00+18зюз237216 2.3 100138
30 июля, пт
пт3000:00+16з38854 0.0 1001185
03:00+14зюз36965 0.0 1002127
06:00+16зюз268963 0.0 1002184
09:00+23зюз355924 0.0 1002799
12:00+26юз574294 0.0 10012383
15:00+26зюз574484 0.1 10012250
18:00+23зюз5847100 0.0 10011231
21:00+19зюз246596 0.1 100191
31 июля, сб
сб3100:00+17зюз376657 0.0 1002167
03:00+14юз357615 0.0 100197
06:00+15ююз277646 0.1 1000275
09:00+18юз4761100 0.1 1000606
12:00+18зюз4863100 0.8 10001163
15:00+20зюз696068 1.1 10001538
18:00+20з49565 0.1 10011277
21:00+19юз386481 0.2 1002393
1 августа, вс
вс100:00+15юз3118695 0.0 1003272
03:00+14юз2592100 0.0 1004107
06:00+16ююз3788100 0.0 1004250
09:00+20ююз4771100 0.1 1003522
12:00+19ююз6977100 0.5 1004723
15:00+18ю3581100 0.9 1003578
18:00+20юз466976 0.0 10031027
21:00+17юз37861 0.2 1004255